Location: Dana
(41.8364°N, 106.7042°W)
Time: 01:38:06
(UTC+00:00)

Altair - Pass Details

Date: 19 May 2026
Orbit: 1501 x 1682 km, 47.2° (Epoch: 6 June)

Event Time Altitude Azimuth Distance (km) Brightness Sun altitude
Rises 11:02:33 0° 234° (SW) 4,781 - -7.3°
Exits shadow 11:04:56 - 233° (SW) 4,026 9.0 -6.9°
Reaches altitude 10° 11:05:35 10° 233° (SW) 3,821 8.9 -6.8°
Maximum altitude 11:15:23 78° 149° (SSE) 1,681 7.8 -5.3°
Drops below altitude 10° 11:25:31 10° 65° (ENE) 3,941 11.6 -3.7°
Sets 11:28:42 0° 65° (ENE) 4,937 13.1 -3.2°
